2022/12/23 00:00:00, 3.2,-6.0
2022/12/23 00:10:00, 3.2,-5.8
2022/12/23 00:20:00, 3.3,-6.0
2022/12/23 00:30:00, 3.5,-6.3
2022/12/23 00:40:00, 3.8,-6.3
2022/12/23 00:50:00, 4.1,-6.5
2022/12/23 01:00:00, 4.5,-6.6
2022/12/23 01:10:00, 4.6,-6.7
2022/12/23 01:20:00, 5.0,-6.9
2022/12/23 01:30:00, 5.3,-6.9
2022/12/23 01:40:00, 5.8,-6.8
2022/12/23 01:50:00, 6.7,-7.4
2022/12/23 02:00:00, 7.4,-7.3
2022/12/23 02:10:00, 8.6,-6.9
2022/12/23 02:20:00,10.1,-7.6
2022/12/23 02:30:00,11.1,-6.9
2022/12/23 02:40:00,12.2,-6.9
2022/12/23 02:50:00,12.6,-6.8
2022/12/23 03:00:00,13.2,-6.9
2022/12/23 03:10:00,13.5,-6.8
2022/12/23 03:20:00,13.5,-6.7
2022/12/23 03:30:00,13.9,-6.7
2022/12/23 03:40:00,14.0,-6.5
2022/12/23 03:50:00,14.7,-6.6
2022/12/23 04:00:00,15.0,-6.7
2022/12/23 04:10:00,15.2,-6.7
2022/12/23 04:20:00,15.6,-6.6
2022/12/23 04:30:00,16.1,-6.8
2022/12/23 04:40:00,16.2,-7.5
2022/12/23 04:50:00,16.1,-7.0
2022/12/23 05:00:00,16.3,-6.7
2022/12/23 05:10:00,16.7,-7.0
2022/12/23 05:20:00,16.9,-7.0
2022/12/23 05:30:00,17.1,-6.8
2022/12/23 05:40:00,17.1,-7.1
2022/12/23 05:50:00,17.0,-7.1
2022/12/23 06:00:00,17.0,-7.1
2022/12/23 06:10:00,17.0,-7.0
2022/12/23 06:20:00,17.1,-7.1
2022/12/23 06:30:00,17.2,-7.3
2022/12/23 06:40:00,17.3,-7.3
2022/12/23 06:50:00,17.2,-6.8
2022/12/23 07:00:00,17.9,-6.9
2022/12/23 07:10:00,18.1,-6.9
2022/12/23 07:20:00,18.2,-7.2
2022/12/23 07:30:00,18.2,-7.2
2022/12/23 07:40:00,18.6,-7.0
2022/12/23 07:50:00,18.7,-7.0
2022/12/23 08:00:00,18.8,-7.1
2022/12/23 08:10:00,18.9,-6.6
2022/12/23 08:20:00,18.9,-6.5
2022/12/23 08:30:00,18.9,-6.3
2022/12/23 08:40:00,18.7,-5.8
2022/12/23 08:50:00,18.8,-5.6
2022/12/23 09:00:00,18.8,-5.8
2022/12/23 09:10:00,18.8,-5.3
2022/12/23 09:20:00,18.8,-4.7
2022/12/23 09:30:00,18.7,-4.9
2022/12/23 09:40:00,18.6,-5.2
2022/12/23 09:50:00,18.5,-4.3
2022/12/23 10:00:00,18.4,-4.4
2022/12/23 10:10:00,18.4,-4.4
2022/12/23 10:20:00,18.3,-4.3
2022/12/23 10:30:00,18.1,-4.3
2022/12/23 10:40:00,17.9,-4.3
2022/12/23 10:50:00,17.9,-3.7
2022/12/23 11:00:00,17.8,-3.9
2022/12/23 11:10:00,17.6,-4.5
2022/12/23 11:20:00,17.6,-3.9
2022/12/23 11:30:00,17.4,-4.0
2022/12/23 11:40:00,17.3,-4.0
2022/12/23 11:50:00,17.3,-3.8
2022/12/23 12:00:00,17.1,-3.2
2022/12/23 12:10:00,17.1,-4.7
2022/12/23 12:20:00,17.0,-4.7
2022/12/23 12:30:00,17.2,-4.6
2022/12/23 12:40:00,17.2,-4.5
2022/12/23 12:50:00,17.0,-4.6
2022/12/23 13:00:00,16.9,-5.3
2022/12/23 13:10:00,17.2,-6.0
2022/12/23 13:20:00,17.6,-5.7
2022/12/23 13:30:00,18.2,-5.1
2022/12/23 13:40:00,18.7,-5.4
2022/12/23 13:50:00,18.8,-5.5
2022/12/23 14:00:00,19.4,-5.6
2022/12/23 14:10:00,19.8,-4.6
2022/12/23 14:20:00,19.8,-5.4
2022/12/23 14:30:00,19.8,-5.5
2022/12/23 14:40:00,19.8,-5.1
2022/12/23 14:50:00,19.9,-5.4
2022/12/23 15:00:00,20.2,-5.5
2022/12/23 15:10:00,20.4,-5.6
2022/12/23 15:20:00,20.6,-5.5
2022/12/23 15:30:00,20.6,-5.2
2022/12/23 15:40:00,20.7,-5.4
2022/12/23 15:50:00,20.6,-5.6
2022/12/23 16:00:00,20.8,-6.0
2022/12/23 16:10:00,21.2,-5.9
2022/12/23 16:20:00,21.4,-6.0
2022/12/23 16:30:00,21.6,-6.0
2022/12/23 16:40:00,21.6,-5.8
2022/12/23 16:50:00,21.7,-5.9
2022/12/23 17:00:00,21.7,-6.0
2022/12/23 17:10:00,21.8,-6.0
2022/12/23 17:20:00,21.8,-6.1
2022/12/23 17:30:00,22.0,-6.2
2022/12/23 17:40:00,22.0,-6.0
2022/12/23 17:50:00,21.9,-5.8
2022/12/23 18:00:00,22.2,-5.9
2022/12/23 18:10:00,22.4,-6.3
2022/12/23 18:20:00,22.6,-6.0
2022/12/23 18:30:00,22.8,-6.3
2022/12/23 18:40:00,23.2,-5.9
2022/12/23 18:50:00,23.4,-5.7
2022/12/23 19:00:00,23.9,-5.9
2022/12/23 19:10:00,23.9,-5.7
2022/12/23 19:20:00,23.9,-5.8
2022/12/23 19:30:00,23.9,-5.6
2022/12/23 19:40:00,24.0,-5.8
2022/12/23 19:50:00,24.1,-5.9
2022/12/23 20:00:00,24.3,-5.6
2022/12/23 20:10:00,24.7,-5.9
2022/12/23 20:20:00,25.1,-6.0
2022/12/23 20:30:00,25.3,-5.6
2022/12/23 20:40:00,25.5,-5.5
2022/12/23 20:50:00,25.2,-5.6
2022/12/23 21:00:00,25.0,-5.3
2022/12/23 21:10:00,25.0,-5.4
2022/12/23 21:20:00,24.8,-5.0
2022/12/23 21:30:00,24.8,-5.2
2022/12/23 21:40:00,24.9,-5.2
2022/12/23 21:50:00,24.9,-5.2
2022/12/23 22:00:00,25.0,-5.5
2022/12/23 22:10:00,24.9,-5.9
2022/12/23 22:20:00,24.8,-5.9
2022/12/23 22:30:00,24.7,-6.1
2022/12/23 22:40:00,24.5,-5.5
2022/12/23 22:50:00,24.2,-5.2
2022/12/23 23:00:00,24.1,-5.1
2022/12/23 23:10:00,24.0,-5.1
2022/12/23 23:20:00,23.8,-4.8
2022/12/23 23:30:00,23.8,-4.8
2022/12/23 23:40:00,23.7,-4.9
2022/12/23 23:50:00,23.7,-4.9
